WE8L Weather Reports


time (UTC)temp
C
wind
direction
speed
KPH
gust
KPH
rain 1hr
cm
rain 24hr
cm
rain mn
cm
humidity
%
barometer
mb
20260902212626 34 299 0.0 0.0 0.00 0.00 0.00 55 1019.0
20260902212122 34 12 0.0 0.0 0.00 0.00 0.00 54 1018.9
20260902211619 34 213 0.0 0.0 0.00 0.00 0.00 56 1019.2
20260902211114 34 244 0.0 0.0 0.00 0.00 0.00 55 1019.0
20260902210613 34 358 0.0 0.0 0.00 0.00 0.00 56 1019.2
20260902210108 34 319 0.0 3.2 0.00 0.00 0.00 55 1019.3
20260902205607 34 227 0.0 8.0 0.00 0.00 0.00 54 1019.2
20260902205103 34 266 0.0 0.0 0.00 0.00 0.00 55 1019.2
20260902204602 33 2 0.0 0.0 0.00 0.00 0.00 55 1019.1
20260902204057 34 238 1.6 4.8 0.00 0.00 0.00 54 1019.3
20260902203553 34 287 0.0 0.0 0.00 0.00 0.00 56 1019.4
20260902203052 33 310 0.0 4.8 0.00 0.00 0.00 56 1019.2
20260902202548 34 210 0.0 0.0 0.00 0.00 0.00 54 1019.4
20260902202044 33 19 0.0 0.0 0.00 0.00 0.00 54 1019.2
20260902201540 33 239 0.0 1.6 0.00 0.00 0.00 55 1019.3
20260902201038 33 6 0.0 0.0 0.00 0.00 0.00 55 1019.3
20260902200534 34 217 0.0 1.6 0.00 0.00 0.00 54 1019.3
20260902200030 34 228 0.0 1.6 0.00 0.00 0.00 54 1019.3
20260902195526 34 7 0.0 0.0 0.00 0.00 0.00 55 1019.4
20260902195025 34 249 0.0 0.0 0.00 0.00 0.00 55 1019.4
20260902194524 34 264 0.0 1.6 0.00 0.00 0.00 54 1019.5
20260902194020 34 236 1.6 4.8 0.00 0.00 0.00 54 1019.8
20260902193516 34 323 0.0 3.2 0.00 0.00 0.00 54 1019.7
20260902193015 35 329 0.0 0.0 0.00 0.00 0.00 53 1019.9
20260902192513 34 238 0.0 0.0 0.00 0.00 0.00 54 1019.7
20260902192012 35 276 1.6 3.2 0.00 0.00 0.00 53 1019.9
20260902191508 34 246 0.0 1.6 0.00 0.00 0.00 53 1020.0
20260902191003 35 328 0.0 3.2 0.00 0.00 0.00 54 1020.0
20260902190458 34 240 0.0 1.6 0.00 0.00 0.00 54 1020.2
20260902185953 34 270 0.0 3.2 0.00 0.00 0.00 53 1020.0
20260902185449 34 253 0.0 1.6 0.00 0.00 0.00 53 1020.1
20260902184944 33 354 0.0 3.2 0.00 0.00 0.00 53 1020.1
20260902184439 33 214 0.0 3.2 0.00 0.00 0.00 53 1020.3
20260902183935 33 283 0.0 4.8 0.00 0.00 0.00 53 1020.1
20260902183431 33 312 0.0 1.6 0.00 0.00 0.00 56 1020.3
20260902182927 33 348 0.0 0.0 0.00 0.00 0.00 56 1020.2
20260902182423 33 303 0.0 3.2 0.00 0.00 0.00 55 1020.3
20260902181919 33 233 0.0 0.0 0.00 0.00 0.00 56 1020.4
20260902181415 33 304 0.0 1.6 0.00 0.00 0.00 55 1020.4
20260902180915 33 250 0.0 4.8 0.00 0.00 0.00 54 1020.4
20260902180410 33 279 0.0 0.0 0.00 0.00 0.00 54 1020.6
20260902175905 33 5 0.0 1.6 0.00 0.00 0.00 56 1020.5
20260902175400 33 349 0.0 0.0 0.00 0.00 0.00 56 1020.6
20260902174855 33 249 0.0 1.6 0.00 0.00 0.00 57 1020.5
20260902174353 33 349 0.0 0.0 0.00 0.00 0.00 57 1020.6
20260902173848 33 315 0.0 1.6 0.00 0.00 0.00 58 1020.9
20260902173348 33 273 0.0 1.6 0.00 0.00 0.00 59 1020.7
20260902172843 33 260 0.0 3.2 0.00 0.00 0.00 58 1020.9
20260902172342 33 280 0.0 0.0 0.00 0.00 0.00 58 1020.7
20260902171837 32 293 0.0 0.0 0.00 0.00 0.00 60 1020.9
20260902171333 32 262 0.0 0.0 0.00 0.00 0.00 64 1020.9
20260902170829 32 279 0.0 0.0 0.00 0.00 0.00 63 1020.9
20260902170324 33 294 0.0 0.0 0.00 0.00 0.00 63 1020.9
20260902165820 33 296 0.0 1.6 0.00 0.00 0.00 61 1021.2
20260902165319 32 228 0.0 0.0 0.00 0.00 0.00 63 1021.2
20260902164814 32 273 0.0 0.0 0.00 0.00 0.00 62 1021.3
20260902164309 32 288 0.0 0.0 0.00 0.00 0.00 62 1021.3
20260902163808 32 334 0.0 1.6 0.00 0.00 0.00 62 1021.3
20260902163303 32 329 0.0 0.0 0.00 0.00 0.00 63 1021.4
20260902162801 32 305 0.0 0.0 0.00 0.00 0.00 63 1021.3
20260902162256 32 265 0.0 4.8 0.00 0.00 0.00 64 1021.2
20260902161751 32 347 0.0 0.0 0.00 0.00 0.00 62 1021.4
20260902161247 32 190 0.0 0.0 0.00 0.00 0.00 64 1021.2
20260902160743 32 258 0.0 0.0 0.00 0.00 0.00 66 1021.3
20260902160242 31 263 0.0 1.6 0.00 0.00 0.00 65 1021.4
20260902155741 32 220 0.0 3.2 0.00 0.00 0.00 65 1021.6
20260902155239 31 321 0.0 0.0 0.00 0.00 0.00 66 1021.6
20260902154735 31 268 0.0 0.0 0.00 0.00 0.00 66 1021.5
20260902154230 31 215 0.0 0.0 0.00 0.00 0.00 68 1021.5
20260902153729 31 230 0.0 0.0 0.00 0.00 0.00 68 1021.7
20260902153229 31 283 0.0 0.0 0.00 0.00 0.00 67 1021.6
20260902152726 31 273 0.0 1.6 0.00 0.00 0.00 69 1021.6
20260902152221 31 316 0.0 1.6 0.00 0.00 0.00 69 1021.5
20260902151716 30 260 0.0 0.0 0.00 0.00 0.00 70 1021.6
20260902151211 30 346 0.0 1.6 0.00 0.00 0.00 70 1021.7
20260902150706 30 291 0.0 0.0 0.00 0.00 0.00 70 1021.8
20260902150202 30 349 0.0 0.0 0.00 0.00 0.00 71 1021.7
20260902145701 30 357 0.0 0.0 0.00 0.00 0.00 71 1021.7
20260902145201 30 226 0.0 0.0 0.00 0.00 0.00 71 1021.8
20260902144658 30 341 0.0 0.0 0.00 0.00 0.00 73 1021.5
20260902144153 30 252 0.0 0.0 0.00 0.00 0.00 72 1021.5
20260902143653 29 320 0.0 0.0 0.00 0.00 0.00 72 1021.6
20260902143148 29 240 0.0 0.0 0.00 0.00 0.00 72 1021.8
20260902142644 29 276 0.0 1.6 0.00 0.00 0.00 72 1021.6
20260902142140 29 313 0.0 0.0 0.00 0.00 0.00 73 1021.6
20260902141639 29 284 0.0 0.0 0.00 0.00 0.00 72 1021.6
20260902141135 28 273 0.0 0.0 0.00 0.00 0.00 73 1021.7
20260902140630 28 284 0.0 0.0 0.00 0.00 0.00 72 1021.5
20260902140125 29 221 0.0 0.0 0.00 0.00 0.00 72 1021.5
20260902135625 28 266 0.0 0.0 0.00 0.00 0.00 72 1021.6
20260902135120 28 321 0.0 0.0 0.00 0.00 0.00 73 1021.5
20260902134616 28 289 0.0 0.0 0.00 0.00 0.00 74 1021.5
20260902134115 28 223 0.0 0.0 0.00 0.00 0.00 73 1021.7
20260902133615 28 223 0.0 0.0 0.00 0.00 0.00 74 1021.6
20260902133110 28 223 0.0 0.0 0.00 0.00 0.00 75 1021.5
20260902132606 27 232 0.0 0.0 0.00 0.00 0.00 76 1021.6
20260902132101 27 235 0.0 0.0 0.00 0.00 0.00 77 1021.6
20260902131557 27 241 0.0 0.0 0.00 0.00 0.00 78 1021.6
20260902131057 27 242 0.0 0.0 0.00 0.00 0.00 78 1021.7
20260902130553 27 214 0.0 0.0 0.00 0.00 0.00 79 1021.5
20260902130048 26 213 0.0 0.0 0.00 0.00 0.00 79 1021.5
20260902125544 26 102 0.0 0.0 0.00 0.00 0.00 80 1021.5
20260902125040 26 154 0.0 0.0 0.00 0.00 0.00 80 1021.5
20260902124537 26 132 0.0 0.0 0.00 0.00 0.00 81 1021.7
20260902124036 26 105 0.0 0.0 0.00 0.00 0.00 82 1021.5
20260902123532 26 102 0.0 0.0 0.00 0.00 0.00 83 1021.4
20260902123032 25 102 0.0 0.0 0.00 0.00 0.00 84 1021.4
20260902122531 25 102 0.0 0.0 0.00 0.00 0.00 86 1021.5
20260902122027 25 101 0.0 0.0 0.00 0.00 0.00 87 1021.4
20260902121521 25 102 0.0 0.0 0.00 0.00 0.00 87 1021.2
20260902121017 25 105 0.0 0.0 0.00 0.00 0.00 87 1021.0
20260902120513 24 105 0.0 0.0 0.00 0.00 0.00 87 1021.3
20260902120008 24 106 0.0 0.0 0.00 0.00 0.00 87 1021.3
20260902115503 24 102 0.0 0.0 0.00 0.00 0.00 87 1021.0
20260902115000 24 105 0.0 0.0 0.00 0.00 0.00 87 1021.0
20260902114455 24 103 0.0 0.0 0.00 0.00 0.00 87 1020.8
20260902113950 24 105 0.0 0.0 0.00 0.00 0.00 88 1020.8
20260902113446 24 105 0.0 0.0 0.00 0.00 0.00 88 1020.8
20260902112945 23 105 0.0 0.0 0.00 0.00 0.00 88 1020.8
20260902112441 23 112 0.0 0.0 0.00 0.00 0.00 88 1020.6
20260902111937 23 112 0.0 0.0 0.00 0.00 0.00 88 1020.7
20260902111434 23 112 0.0 0.0 0.00 0.00 0.00 88 1020.5
20260902110929 23 112 0.0 0.0 0.00 0.00 0.00 88 1020.5
20260902110425 23 112 0.0 0.0 0.00 0.00 0.00 89 1020.5
20260902105925 23 112 0.0 0.0 0.00 0.00 0.00 89 1020.5
20260902105420 23 112 0.0 0.0 0.00 0.00 0.00 89 1020.6
20260902104915 23 112 0.0 0.0 0.00 0.00 0.00 89 1020.7
20260902104411 23 112 0.0 0.0 0.00 0.00 0.00 89 1020.7
20260902103910 23 112 0.0 0.0 0.00 0.00 0.00 89 1020.7
20260902103406 23 112 0.0 0.0 0.00 0.00 0.00 89 1020.8
20260902102900 23 112 0.0 0.0 0.00 0.00 0.00 89 1020.4
20260902102358 23 112 0.0 0.0 0.00 0.00 0.00 89 1020.6
20260902101854 23 112 0.0 0.0 0.00 0.00 0.00 89 1020.6
20260902101349 23 115 0.0 0.0 0.00 0.00 0.00 89 1020.7
20260902100848 23 122 0.0 0.0 0.00 0.00 0.00 88 1020.7
20260902100348 23 122 0.0 0.0 0.00 0.00 0.00 89 1020.7
20260902095843 23 122 0.0 0.0 0.00 0.00 0.00 89 1020.5
20260902095343 23 122 0.0 0.0 0.00 0.00 0.00 89 1020.4
20260902094842 23 122 0.0 0.0 0.00 0.00 0.00 90 1020.3
20260902094339 23 122 0.0 0.0 0.00 0.00 0.00 90 1020.3
20260902093838 23 122 0.0 0.0 0.00 0.00 0.00 90 1020.4
20260902093334 23 122 0.0 0.0 0.00 0.00 0.00 91 1020.5
20260902092832 23 122 0.0 0.0 0.00 0.00 0.00 91 1020.5
20260902092329 23 122 0.0 0.0 0.00 0.00 0.00 92 1020.4
20260902091828 23 122 0.0 0.0 0.00 0.00 0.00 92 1020.5
20260902091324 23 121 0.0 0.0 0.00 0.00 0.00 91 1020.4
20260902090821 23 121 0.0 0.0 0.00 0.00 0.00 91 1020.4
20260902090320 23 121 0.0 0.0 0.00 0.00 0.00 91 1020.4
20260902085819 23 121 0.0 0.0 0.00 0.00 0.00 91 1020.2
20260902085314 23 121 0.0 0.0 0.00 0.00 0.00 90 1020.4
20260902084810 23 121 0.0 0.0 0.00 0.00 0.00 90 1020.1
20260902084307 23 121 0.0 0.0 0.00 0.00 0.00 90 1020.0
20260902083802 23 121 0.0 0.0 0.00 0.00 0.00 90 1020.0
20260902083301 23 121 0.0 0.0 0.00 0.00 0.00 90 1020.0
20260902082756 23 121 0.0 0.0 0.00 0.00 0.00 90 1019.8
20260902082253 23 121 0.0 0.0 0.00 0.00 0.00 90 1019.9
20260902081749 23 121 0.0 0.0 0.00 0.00 0.00 89 1020.1
20260902081244 23 121 0.0 0.0 0.00 0.00 0.00 90 1019.9
20260902080739 23 121 0.0 0.0 0.00 0.00 0.00 90 1019.9
20260902080236 23 121 0.0 0.0 0.00 0.00 0.00 89 1019.9
20260902075735 23 121 0.0 0.0 0.00 0.00 0.00 89 1019.8
20260902075232 23 121 0.0 0.0 0.00 0.00 0.00 89 1019.8
20260902074731 23 121 0.0 0.0 0.00 0.00 0.00 89 1019.9
20260902074227 23 120 0.0 0.0 0.00 0.00 0.00 89 1019.8
20260902073722 23 120 0.0 0.0 0.00 0.00 0.00 89 1019.7
20260902073218 23 120 0.0 0.0 0.00 0.00 0.00 89 1019.8
20260902072714 23 120 0.0 0.0 0.00 0.00 0.00 88 1019.8
20260902072210 23 120 0.0 0.0 0.00 0.00 0.00 88 1019.9
20260902071706 24 120 0.0 0.0 0.00 0.00 0.00 88 1019.7
20260902071201 24 120 0.0 0.0 0.00 0.00 0.00 87 1019.9
20260902070657 24 120 0.0 0.0 0.00 0.00 0.00 87 1020.0
20260902070157 24 120 0.0 0.0 0.00 0.00 0.00 87 1019.9
20260902065655 24 120 0.0 0.0 0.00 0.00 0.00 86 1019.9
20260902065151 24 120 0.0 0.0 0.00 0.00 0.00 86 1019.9
20260902064646 25 120 0.0 0.0 0.00 0.00 0.00 86 1019.8
20260902064142 25 120 0.0 0.0 0.00 0.00 0.00 86 1019.8
20260902063638 25 120 0.0 0.0 0.00 0.00 0.00 86 1019.9
20260902063132 25 120 0.0 0.0 0.00 0.00 0.00 85 1019.7
20260902062631 25 120 0.0 0.0 0.00 0.00 0.00 85 1019.6
20260902062126 25 120 0.0 0.0 0.00 0.00 0.00 85 1019.8
20260902061626 25 120 0.0 0.0 0.00 0.00 0.00 83 1020.0
20260902061122 25 120 0.0 0.0 0.00 0.00 0.00 83 1019.8
20260902060618 25 120 0.0 0.0 0.00 0.00 0.00 83 1019.9
20260902060114 25 120 0.0 0.0 0.00 0.00 0.00 83 1019.9
20260902055610 25 120 0.0 0.0 0.00 0.00 0.00 83 1019.8
20260902055105 25 120 0.0 0.0 0.00 0.00 0.00 83 1020.0
20260902054600 25 120 0.0 0.0 0.00 0.00 0.00 83 1019.9
20260902054056 25 120 0.0 0.0 0.00 0.00 0.00 83 1020.0
20260902053551 25 120 0.0 0.0 0.00 0.00 0.00 83 1020.1
20260902053050 25 120 0.0 0.0 0.00 0.00 0.00 83 1019.9
20260902052545 25 121 0.0 0.0 0.00 0.00 0.00 84 1019.8
20260902052041 25 120 0.0 0.0 0.00 0.00 0.00 82 1020.0
20260902051540 26 120 0.0 0.0 0.00 0.00 0.00 82 1020.0
20260902051039 26 120 0.0 0.0 0.00 0.00 0.00 82 1019.9
20260902050534 26 120 0.0 0.0 0.00 0.00 0.00 82 1020.1
20260902050029 26 120 0.0 0.0 0.00 0.00 0.00 82 1020.0
20260902045525 26 120 0.0 0.0 0.00 0.00 0.00 82 1019.8
20260902045022 26 120 0.0 0.0 0.00 0.00 0.00 81 1020.0
20260902044521 26 120 0.0 0.0 0.00 0.00 0.00 80 1020.0
20260902044017 26 120 0.0 0.0 0.00 0.00 0.00 80 1020.0
20260902043513 26 120 0.0 0.0 0.00 0.00 0.00 79 1020.0
20260902043013 26 120 0.0 0.0 0.00 0.00 0.00 78 1019.9
20260902042512 26 120 0.0 0.0 0.00 0.00 0.00 78 1020.0
20260902042008 26 120 0.0 0.0 0.00 0.00 0.00 78 1020.0
20260902041508 27 120 0.0 0.0 0.00 0.00 0.00 77 1019.9
20260902041003 27 120 0.0 0.0 0.00 0.00 0.00 77 1020.0
20260902040503 27 120 0.0 0.0 0.00 0.00 0.00 77 1020.0
20260902040002 27 120 0.0 0.0 0.00 0.00 0.00 77 1020.0
20260902035457 27 120 0.0 0.0 0.00 0.00 0.00 77 1019.9
20260902034956 27 120 0.0 0.0 0.00 0.00 0.00 77 1020.0
20260902034451 27 120 0.0 0.0 0.00 0.00 0.00 77 1020.0
20260902033950 27 120 0.0 0.0 0.00 0.00 0.00 77 1020.0
20260902033450 27 120 0.0 0.0 0.00 0.00 0.00 76 1020.0
20260902032948 27 120 0.0 0.0 0.00 0.00 0.00 76 1020.1
20260902032444 27 120 0.0 0.0 0.00 0.00 0.00 76 1019.9
20260902031938 27 120 0.0 0.0 0.00 0.00 0.00 76 1019.8
20260902031433 27 120 0.0 0.0 0.00 0.00 0.00 75 1019.9
20260902030930 27 120 0.0 0.0 0.00 0.00 0.00 75 1019.8
20260902030430 28 120 0.0 0.0 0.00 0.00 0.00 74 1019.8
20260902025928 28 120 0.0 0.0 0.00 0.00 0.00 75 1019.7
20260902025425 28 120 0.0 0.0 0.00 0.00 0.00 74 1019.8
20260902024920 28 120 0.0 0.0 0.00 0.00 0.00 74 1020.1
20260902024415 28 120 0.0 0.0 0.00 0.00 0.00 73 1019.9
20260902023910 28 101 0.0 0.0 0.00 0.00 0.00 73 1019.8
20260902023406 28 102 0.0 0.0 0.00 0.00 0.00 73 1020.0
20260902022905 28 101 0.0 0.0 0.00 0.00 0.00 73 1019.9
20260902022359 28 101 0.0 0.0 0.00 0.00 0.00 72 1019.9
20260902021856 28 101 0.0 0.0 0.00 0.00 0.00 72 1020.0
20260902021355 28 100 0.0 0.0 0.00 0.00 0.00 71 1020.0
20260902020851 28 85 0.0 0.0 0.00 0.00 0.00 71 1019.8
20260902020347 28 154 0.0 0.0 0.00 0.00 0.00 70 1019.8
20260902015843 29 154 0.0 0.0 0.00 0.00 0.00 70 1019.8
20260902015338 29 138 0.0 0.0 0.00 0.00 0.00 69 1019.7
20260902014834 29 153 0.0 0.0 0.00 0.00 0.00 69 1019.7
20260902014330 29 134 0.0 0.0 0.00 0.00 0.00 69 1019.6
20260902013829 30 154 0.0 0.0 0.00 0.00 0.00 68 1019.7
20260902013324 30 116 0.0 0.0 0.00 0.00 0.00 68 1019.6
20260902012820 30 125 0.0 3.2 0.00 0.00 0.00 68 1019.7
20260902012316 29 161 1.6 1.6 0.00 0.00 0.00 69 1019.6
20260902011811 29 163 0.0 0.0 0.00 0.00 0.00 70 1019.6
20260902011306 28 170 0.0 0.0 0.00 0.00 0.00 71 1019.4
20260902010804 28 208 0.0 0.0 0.00 0.00 0.00 74 1019.5
20260902010300 28 230 0.0 0.0 0.00 0.00 0.00 73 1019.3
20260902005759 28 230 0.0 0.0 0.00 0.00 0.00 74 1019.5
20260902005254 28 230 0.0 0.0 0.00 0.00 0.00 75 1019.4
20260902004749 28 230 0.0 0.0 0.00 0.00 0.00 76 1019.4
20260902004244 28 230 0.0 0.0 0.00 0.00 0.00 75 1019.5
20260902003738 28 230 0.0 0.0 0.00 0.00 0.00 74 1019.3
20260902003234 28 230 0.0 0.0 0.00 0.00 0.00 73 1019.2
20260902002730 28 230 0.0 0.0 0.00 0.00 0.00 73 1019.4
20260902002229 29 230 0.0 0.0 0.00 0.00 0.00 73 1019.3
20260902001725 29 230 0.0 0.0 0.00 0.00 0.00 72 1019.5
20260902001225 30 230 0.0 0.0 0.00 0.00 0.00 72 1019.5
20260902000720 30 230 0.0 0.0 0.00 0.00 0.00 71 1019.4
20260902000215 30 230 0.0 0.0 0.00 0.00 0.00 69 1019.5
20260901235715 30 230 0.0 0.0 0.00 0.00 0.00 70 1019.5
20260901235210 31 231 0.0 0.0 0.00 0.00 0.00 68 1019.4
20260901234709 31 231 0.0 0.0 0.00 0.00 0.00 64 1019.5
20260901234204 31 231 0.0 0.0 0.00 0.00 0.00 62 1019.6
20260901233704 32 231 0.0 0.0 0.00 0.00 0.00 61 1019.7
20260901233200 32 231 0.0 0.0 0.00 0.00 0.00 59 1019.6
20260901232655 32 231 0.0 0.0 0.00 0.00 0.00 57 1019.7
20260901232150 32 231 0.0 0.0 0.00 0.00 0.00 57 1019.8
20260901231647 32 231 0.0 0.0 0.00 0.00 0.00 56 1019.8
20260901231143 32 231 0.0 0.0 0.00 0.00 0.00 57 1019.8
20260901230638 33 238 0.0 0.0 0.00 0.00 0.00 56 1019.7
20260901230138 33 318 0.0 0.0 0.00 0.00 0.00 56 1019.6
20260901225633 33 278 0.0 0.0 0.00 0.00 0.00 56 1019.8
20260901225127 33 282 0.0 0.0 0.00 0.00 0.00 54 1019.7
20260901224624 33 211 1.6 3.2 0.00 0.00 0.00 53 1019.7
20260901224119 33 315 0.0 0.0 0.00 0.00 0.00 54 1019.6
20260901223614 33 338 0.0 0.0 0.00 0.00 0.00 53 1019.6
20260901223110 33 325 0.0 0.0 0.00 0.00 0.00 53 1019.6
20260901222606 33 13 0.0 0.0 0.00 0.00 0.00 53 1019.5
20260901222101 33 219 0.0 0.0 0.00 0.00 0.00 54 1019.6
20260901221558 33 339 0.0 0.0 0.00 0.00 0.00 54 1019.7
20260901221053 33 202 0.0 0.0 0.00 0.00 0.00 53 1019.5
20260901220552 33 296 0.0 0.0 0.00 0.00 0.00 53 1019.7
20260901220051 33 290 0.0 0.0 0.00 0.00 0.00 55 1019.6
20260901215549 34 314 0.0 3.2 0.00 0.00 0.00 53 1019.7
20260901215044 34 251 0.0 1.6 0.00 0.00 0.00 52 1019.6
20260901214544 34 233 0.0 4.8 0.00 0.00 0.00 52 1019.4
20260901214043 34 314 0.0 4.8 0.00 0.00 0.00 51 1019.4
20260901213543 35 358 0.0 1.6 0.00 0.00 0.00 51 1019.3
20260901213043 34 257 0.0 0.0 0.00 0.00 0.00 52 1019.6